Weather History for Vlieland, Netherlands

Change the Weather History Date:

Friday, October 19, 2012

  Actual Average Record
Temperature  
Mean Temperature 56 °F -  
Max Temperature 60 °F 53 °F 63 °F (2014)
Min Temperature 53 °F 47 °F 35 °F (2003)
Degree Days  
Heating Degree Days 8    
Growing Degree Days 6 (Base 50)    
Moisture  
Dew Point 55 °F    
Average Humidity 96    
Maximum Humidity 100    
Minimum Humidity 88    
Precipitation  
Precipitation 0.00 in - - ()
Sea Level Pressure  
Sea Level Pressure 29.79 in    
Wind  
Wind Speed 6 mph ()    
Max Wind Speed 12 mph    
Max Gust Speed -    
Visibility 3.0 miles    
Events Fog , Rain    
Averages and records for this station are not official NWS values.
T = Trace of Precipitation, MM = Missing Value Source: Averaged Metar Reports

Daily Weather History Graph

Daily Weather History Graph

Search for Another Location

Airport:

Trip Planner

Search our weather history database for the weather conditions in past years. The results will help you decide how hot, cold, wet, or windy it might be!

Date:

Astronomy

Oct. 19, 2012 Rise Set
Actual Time 8:14 AM CEST 6:34 PM CEST
Civil Twilight 7:39 AM CEST 7:10 PM CEST
Nautical Twilight 6:59 AM CEST 7:50 PM CEST
Astronomical Twilight 6:18 AM CEST 8:30 PM CEST
Moon 1:13 PM CEST (10/19) 9:25 PM CEST (10/19)
Length of Visible Light 11h 30m
Length of Day
10h 19m
Waxing Crescent, 21% of the Moon is Illuminated
Oct 19
Waxing Crescent
Oct 22
First Quarter
Oct 29
Full
Nov 7
Last Quarter
Nov 13
New

Hourly Weather History & Observations

Time (CEST) Temp. Dew Point Humidity Pressure Visibility Wind Dir Wind Speed Gust Speed Precip Events Conditions
12:00 AM 53.6 °F 53.6 °F 100% 29.77 in - South 4.6 mph - N/A   Overcast
12:07 AM 53.6 °F 53.6 °F 100% 29.77 in 3.1 mi SSE 4.6 mph - N/A Rain Light Rain
12:08 AM 53.6 °F 53.6 °F 100% 29.77 in - SSE 4.6 mph - N/A   Overcast
12:25 AM 53.6 °F 53.6 °F 100% 29.77 in - SE 6.9 mph - N/A Rain Rain
12:46 AM 53.6 °F 53.6 °F 100% 29.77 in - SE 6.9 mph - N/A Rain Light Rain
12:55 AM 53.6 °F 53.6 °F 100% 29.77 in 2.5 mi SSE 8.1 mph - N/A Rain Light Rain
12:56 AM 53.6 °F 53.6 °F 100% 29.80 in - SSE 8.1 mph - N/A Rain Light Rain
1:12 AM 53.6 °F 53.6 °F 100% 29.80 in 1.7 mi SSE 9.2 mph - N/A Rain Light Rain
1:13 AM 53.6 °F 53.6 °F 100% 29.80 in 1.7 mi SSE 9.2 mph - N/A Rain Light Rain Showers
1:25 AM 53.6 °F 53.6 °F 100% 29.80 in 1.8 mi SSE 9.2 mph - N/A Rain Light Rain
1:55 AM 53.6 °F 53.6 °F 100% 29.80 in - SSE 9.2 mph - N/A   Drizzle
2:08 AM 53.6 °F 53.6 °F 100% 29.80 in - SSE 6.9 mph - N/A Rain Rain
2:10 AM 53.6 °F 53.6 °F 100% 29.77 in - SE 6.9 mph - N/A   Drizzle
2:16 AM 53.6 °F 53.6 °F 100% 29.77 in - SE 6.9 mph - N/A   Drizzle
2:25 AM 53.6 °F 53.6 °F 100% 29.80 in - SE 6.9 mph - N/A   Drizzle
2:36 AM 53.6 °F 53.6 °F 100% 29.77 in - SE 8.1 mph - N/A   Mostly Cloudy
2:42 AM 53.6 °F 53.6 °F 100% 29.77 in - SE 6.9 mph - N/A   Mostly Cloudy
2:46 AM 53.6 °F 53.6 °F 100% 29.77 in - SE 6.9 mph - N/A   Overcast
2:50 AM 53.6 °F 53.6 °F 100% 29.77 in - SE 5.8 mph - N/A   Overcast
2:55 AM 53.6 °F 53.6 °F 100% 29.80 in - SE 5.8 mph - N/A   Overcast
3:25 AM 53.6 °F 53.6 °F 100% 29.80 in 1.7 mi ESE 4.6 mph - N/A Rain Rain
3:36 AM 53.6 °F 53.6 °F 100% 29.80 in 1.5 mi ESE 4.6 mph - N/A   Light Drizzle
3:37 AM 53.6 °F 53.6 °F 100% 29.80 in 1.5 mi ESE 4.6 mph - N/A   Light Drizzle
3:55 AM 53.6 °F 53.6 °F 100% 29.80 in 1.6 mi SE 3.5 mph - N/A   Light Drizzle
4:25 AM 53.6 °F 53.6 °F 100% 29.80 in 1.4 mi SE 4.6 mph - N/A   Drizzle
4:37 AM 53.6 °F 53.6 °F 100% 29.77 in 1.2 mi ESE 6.9 mph - N/A   Drizzle
4:50 AM 53.6 °F 53.6 °F 100% 29.77 in 1.2 mi East 8.1 mph - N/A   Overcast
4:55 AM 53.6 °F 53.6 °F 100% 29.77 in 1.2 mi ESE 8.1 mph - N/A   Overcast
5:25 AM 53.6 °F 53.6 °F 100% 29.77 in 1.4 mi ESE 8.1 mph - N/A   Overcast
5:55 AM 55.4 °F 53.6 °F 94% 29.77 in 1.5 mi SE 6.9 mph - N/A   Overcast
6:05 AM 55.4 °F 53.6 °F 94% 29.77 in 1.4 mi ESE 6.9 mph - N/A   Overcast
6:09 AM 53.6 °F 53.6 °F 100% 29.77 in 1.4 mi ESE 6.9 mph - N/A   Overcast
6:25 AM 53.6 °F 53.6 °F 100% 29.77 in 1.4 mi ESE 5.8 mph - N/A   Overcast
6:55 AM 53.6 °F 53.6 °F 100% 29.77 in 1.1 mi ESE 5.8 mph - N/A   Overcast
7:03 AM 55.4 °F 53.6 °F 94% 29.77 in 0.9 mi East 5.8 mph - N/A   Overcast
7:09 AM 53.6 °F 53.6 °F 100% 29.77 in 1.1 mi ENE 5.8 mph - N/A   Overcast
7:25 AM 55.4 °F 53.6 °F 94% 29.77 in 1.1 mi East 4.6 mph - N/A Rain Light Rain
7:32 AM 55.4 °F 53.6 °F 94% 29.80 in 0.9 mi NE 2.3 mph - N/A Rain Light Rain
7:34 AM 55.4 °F 53.6 °F 94% 29.77 in 1.0 mi NNW 3.5 mph - N/A Rain Rain
7:38 AM 55.4 °F 53.6 °F 94% 29.77 in 0.9 mi NW 4.6 mph - N/A Rain Rain
7:43 AM 55.4 °F 53.6 °F 94% 29.77 in 0.9 mi NW 3.5 mph - N/A Rain Light Rain
7:55 AM 55.4 °F 53.6 °F 94% 29.80 in 1.1 mi WNW 2.3 mph - N/A Rain Light Rain Showers
8:17 AM 55.4 °F 53.6 °F 94% 29.77 in 0.6 mi North 5.8 mph - N/A Rain Light Rain
8:25 AM 55.4 °F 53.6 °F 94% 29.77 in 0.6 mi North 5.8 mph - N/A   Drizzle
8:27 AM 55.4 °F 53.6 °F 94% 29.77 in 0.6 mi NE 5.8 mph - N/A   Light Drizzle
8:40 AM 55.4 °F 53.6 °F 94% 29.74 in 1.0 mi ENE 10.4 mph - N/A   Partly Cloudy
8:47 AM 55.4 °F 53.6 °F 94% 29.77 in 1.0 mi NE 8.1 mph - N/A   Mostly Cloudy
8:55 AM 55.4 °F 53.6 °F 94% 29.77 in 1.1 mi NE 6.9 mph - N/A   Mostly Cloudy
9:07 AM 55.4 °F 53.6 °F 94% 29.77 in 0.9 mi NNE 6.9 mph - N/A   Overcast
9:25 AM 55.4 °F 53.6 °F 94% 29.80 in 0.9 mi NNE 5.8 mph - N/A   Overcast
9:26 AM 55.4 °F 53.6 °F 94% 29.80 in 1.1 mi NNE 4.6 mph - N/A   Overcast
9:30 AM 55.4 °F 53.6 °F 94% 29.80 in 1.2 mi NE 4.6 mph - N/A   Overcast
9:43 AM 55.4 °F 53.6 °F 94% 29.80 in 1.2 mi East 3.5 mph - N/A   Overcast
9:47 AM 55.4 °F 53.6 °F 94% 29.80 in 1.2 mi ENE 4.6 mph - N/A   Overcast
9:55 AM 55.4 °F 53.6 °F 94% 29.80 in 0.9 mi ENE 4.6 mph - N/A Rain Light Rain
9:56 AM 55.4 °F 53.6 °F 94% 29.80 in 0.9 mi ENE 3.5 mph - N/A   Light Drizzle
10:11 AM 55.4 °F 55.4 °F 100% 29.80 in 0.7 mi East 3.5 mph - N/A   Overcast
10:19 AM 55.4 °F 55.4 °F 100% 29.80 in 0.7 mi East 3.5 mph - N/A   Overcast
10:25 AM 55.4 °F 55.4 °F 100% 29.80 in - East 4.6 mph - N/A Fog Fog
10:29 AM 55.4 °F 55.4 °F 100% 29.80 in 0.5 mi East 4.6 mph - N/A Fog Fog
10:33 AM 55.4 °F 55.4 °F 100% 29.80 in 0.3 mi East 4.6 mph - N/A Fog Fog
10:55 AM 55.4 °F 55.4 °F 100% 29.80 in 0.2 mi East 9.2 mph - N/A Fog Fog
10:59 AM 55.4 °F 55.4 °F 100% 29.80 in 0.8 mi East 10.4 mph - N/A   Overcast
11:12 AM 57.2 °F 55.4 °F 94% 29.80 in 0.5 mi East 6.9 mph - N/A Fog Fog
11:13 AM 55.4 °F 55.4 °F 100% 29.80 in - East 6.9 mph - N/A Fog Fog
11:25 AM 55.4 °F 55.4 °F 100% 29.80 in 0.4 mi East 5.8 mph - N/A Fog Fog
11:29 AM 55.4 °F 55.4 °F 100% 29.80 in 0.5 mi East 6.9 mph - N/A Fog Fog
11:39 AM 57.2 °F 55.4 °F 94% 29.77 in 0.8 mi East 11.5 mph - N/A Rain Light Rain
11:47 AM 57.2 °F 55.4 °F 94% 29.77 in 1.1 mi East 11.5 mph - N/A Rain Light Rain
11:51 AM 57.2 °F 57.2 °F 100% 29.77 in 1.1 mi East 9.2 mph - N/A Rain Light Rain
11:55 AM 57.2 °F 57.2 °F 100% 29.77 in 1.2 mi ESE 8.1 mph - N/A   Mostly Cloudy
11:59 AM 57.2 °F 55.4 °F 94% 29.77 in - ESE 6.9 mph - N/A   Mostly Cloudy
12:08 PM 55.4 °F 55.4 °F 100% 29.80 in - ESE 6.9 mph - N/A   Mostly Cloudy
12:13 PM 55.4 °F 55.4 °F 100% 29.80 in - ESE 5.8 mph - N/A   Overcast
12:18 PM 57.2 °F 57.2 °F 100% 29.80 in 3.7 mi SE 4.6 mph - N/A   Overcast
12:25 PM 57.2 °F 55.4 °F 94% 29.80 in 5.6 mi SE 5.8 mph - N/A   Overcast
12:35 PM 57.2 °F 57.2 °F 100% 29.80 in 5.6 mi South 6.9 mph - N/A   Overcast
12:55 PM 57.2 °F 57.2 °F 100% 29.80 in 6.2 mi South 8.1 mph - N/A   Mostly Cloudy
1:25 PM 57.2 °F 55.4 °F 94% 29.80 in 6.2 mi SSE 6.9 mph - N/A   Overcast
1:55 PM 57.2 °F 55.4 °F 94% 29.80 in 6.2 mi SSE 6.9 mph - N/A   Overcast
2:20 PM 59.0 °F 57.2 °F 94% 29.80 in 6.2 mi SSE 5.8 mph - N/A   Overcast
2:25 PM 59.0 °F 57.2 °F 94% 29.80 in 6.2 mi SSE 5.8 mph - N/A   Overcast
2:26 PM 60.8 °F 59.0 °F 94% 29.80 in 6.2 mi SSE 5.8 mph - N/A   Overcast
2:47 PM 57.2 °F 55.4 °F 94% 29.80 in 6.2 mi SSE 8.1 mph - N/A   Mostly Cloudy
2:55 PM 59.0 °F 57.2 °F 94% 29.80 in 6.2 mi SSE 6.9 mph - N/A   Mostly Cloudy
3:25 PM 60.8 °F 57.2 °F 88% 29.83 in 6.2 mi SSE 5.8 mph - N/A   Overcast
3:55 PM 60.8 °F 57.2 °F 88% 29.83 in 6.2 mi South 4.6 mph - N/A   Overcast
4:25 PM 60.8 °F 57.2 °F 88% 29.83 in 6.2 mi SW 5.8 mph - N/A   Mostly Cloudy
4:55 PM 60.8 °F 57.2 °F 88% 29.80 in 6.2 mi SSW 3.5 mph - N/A   Overcast
5:25 PM 59.0 °F 55.4 °F 88% 29.80 in 6.2 mi SE 4.6 mph - N/A Rain Light Rain
5:55 PM 57.2 °F 53.6 °F 88% 29.83 in 6.2 mi SSE 5.8 mph - N/A   Light Drizzle
6:25 PM 57.2 °F 55.4 °F 94% 29.83 in 5.6 mi SSE 6.9 mph - N/A Rain Light Rain
6:35 PM 57.2 °F 55.4 °F 94% 29.83 in 5.6 mi SSE 6.9 mph - N/A Rain Light Rain
6:55 PM 57.2 °F 55.4 °F 94% 29.83 in 6.2 mi SSE 6.9 mph - N/A   Mostly Cloudy
7:01 PM 57.2 °F 55.4 °F 94% 29.83 in 4.3 mi SSE 5.8 mph - N/A Rain Light Rain
7:04 PM 57.2 °F 55.4 °F 94% 29.83 in 5.0 mi SSE 6.9 mph - N/A Rain Light Rain
7:20 PM 57.2 °F 55.4 °F 94% 29.83 in 6.2 mi SSE 6.9 mph - N/A   Overcast
7:25 PM 57.2 °F 55.4 °F 94% 29.83 in 6.2 mi SSE 8.1 mph - N/A   Overcast
7:55 PM 57.2 °F 55.4 °F 94% 29.83 in 6.2 mi SSE 6.9 mph - N/A   Overcast
8:25 PM 57.2 °F 55.4 °F 94% 29.83 in 6.2 mi SE 9.2 mph - N/A   Overcast
8:55 PM 57.2 °F 55.4 °F 94% 29.83 in 6.2 mi SSE 10.4 mph - N/A   Overcast
9:25 PM 57.2 °F 55.4 °F 94% 29.83 in 6.2 mi SSE 9.2 mph - N/A   Overcast
9:55 PM 57.2 °F 55.4 °F 94% 29.83 in 6.2 mi SSE 8.1 mph - N/A   Overcast
10:25 PM 57.2 °F 55.4 °F 94% 29.83 in 6.2 mi South 9.2 mph - N/A   Overcast
10:55 PM 57.2 °F 55.4 °F 94% 29.83 in 6.2 mi South 10.4 mph - N/A   Overcast
11:25 PM 57.2 °F 55.4 °F 94% 29.83 in 6.2 mi SSE 9.2 mph - N/A   Overcast
11:55 PM 57.2 °F 55.4 °F 94% 29.83 in 6.2 mi South 10.4 mph - N/A   Overcast